Regional Weather Roundup
Issued by NWS Northern Indiana

Home | Current Version | Previous Version | Text Only | Print | Product List | Glossary Off
Versions: 1 2 3 4 5 6 7 8 9 10 11 12 13 14 15 16 17 18 19 20 21 22 23 24 25 26 27 28 29 30 31 32 33 34 35 36 37 38 39 40 41 42 43 44 45 46 47 48 49 50

000
ASUS43 KIWX 261110
RWRIWX

KIWX WEATHER ROUNDUP
NATIONAL WEATHER SERVICE NORTHERN INDIANA
700 AM EDT TUE JUL 26 2016

NOTE: "FAIR" INDICATES FEW OR NO CLOUDS BELOW 12,000 FEET WITH NO
SIGNIFICANT WEATHER AND/OR OBSTRUCTIONS TO VISIBILITY.

* THESE STATIONS ARE NOT UNDER NWS QUALITY CONTROL. THEY ALSO MAY NOT
  REPORT WEATHER SUCH AS PRECIPITATION OR FOG.

INZ001>027-261200-
NORTHERN INDIANA

CITY           SKY/WX    TMP DP  RH WIND       PRES   REMARKS
GARY*          MOCLDY    66  66 100 CALM      30.06R
VALPARAISO     MOCLDY    66  64  93 CALM      30.07R
MICHIGAN CITY* PTCLDY    63  63 100 CALM      30.07R
LAPORTE*       CLOUDY   N/A N/A N/A CALM      30.08R
KNOX*          PTCLDY    63  61  94 CALM      30.06R
SOUTH BEND     PTCLDY    64  62  93 CALM      30.07R
ELKHART*       MOCLDY    64  64 100 CALM      30.08
GOSHEN         PTCLDY    63  60  90 CALM      30.07R
MONTICELLO*    PTCLDY    65  60  85 NE3       30.05R
LOGANSPORT*    PTCLDY    64  63  94 E6        30.07S
ROCHESTER*     MOCLDY    66  64  94 CALM      30.08R
WARSAW*        CLOUDY    61  61 100 CALM      30.08R
ANGOLA*        CLEAR     63  54  72 CALM      30.07S
FORT WAYNE     PTCLDY    61  59  93 CALM      30.07R
HUNTINGTON*    CLEAR     61  60  96 CALM      30.07R FOG
PERU/GRISSOM   PTCLDY    64  64 100 E2        30.06R
MARION*        PTCLDY    60  60 100 CALM      30.08R FOG

$$
INZ028>050-261200-
CENTRAL INDIANA

CITY           SKY/WX    TMP DP  RH WIND       PRES   REMARKS
LAFAYETTE      CLOUDY    71  65  81 NE6       30.05R
KOKOMO*        MOCLDY    63  57  82 N3        30.07R
MUNCIE*        CLOUDY    68  65  90 CALM      30.06R
INDIANAPOLIS   CLOUDY    74  64  71 NE8       30.05R

$$
MIZ043>046-050>051-056>058-064>065-071>073-077>080-261200-
SOUTHWEST LOWER MICHIGAN

CITY           SKY/WX    TMP DP  RH WIND       PRES   REMARKS
BATTLE CREEK   CLEAR     60  60 100 CALM      30.08R
BENTON HARBOR  CLEAR     63  60  90 CALM      30.07R
COLDWATER*     CLOUDY    62  62 100 CALM      30.08S FOG
HILLSDALE*     PTCLDY    60  59  97 CALM      30.08R
HOLLAND        CLEAR     64  62  93 CALM      30.07R
GRAND RAPIDS   PTCLDY    64  62  93 CALM      30.07R FOG
KALAMAZOO      CLEAR     62  59  90 CALM      30.09R
STURGIS*       PTCLDY    62  61  95 CALM      30.07R
THREE RIVERS*  FAIR      63  62  95 CALM      30.08R

$$
OHZ001>008-015>018-024>025-261200-
NORTHWEST OHIO

CITY           SKY/WX    TMP DP  RH WIND       PRES   REMARKS
DEFIANCE       PTCLDY    67  62  84 CALM      30.06R
FINDLAY        PTCLDY    65  61  87 CALM      30.05R
TOLEDO EXPRESS CLOUDY    66  64  93 CALM      30.05R
TOLEDO METCALF PTCLDY    70  64  81 N5        30.06R
LIMA           CLEAR     65  64  97 CALM      30.06R

$$
AND FOR LAKE MICHIGAN COASTAL AND OPEN LAKE BUOY OBSERVATIONS

STATION/POSITION TEMP    WIND        PRES    VSBY  WAVE
                 AIR SEA DIR/SP/G                  HT/PER
                 (F)     (DEG/KT/KT) (MB)    (MI)  (FT/S)
CALUMET HARBOR    70     320/  2/  2 1016.9R
MICHIGAN CITY     71     110/  3/  3   N/A
BURNS HARBOR      72        CALM     1017.9R
SAINT JOSEPH      68     110/  2/  3 1018.3R
SOUTH LAKE BUOY   74 73  260/  6/  8 1017.1R         0
4 MI NW BRIDGMAN  72 75   CALM  /  2 1017.8R         0
MICHIGAN CITY     74 74  120/  2/  4   N/A           0

$$
&&




USA.gov is the U.S. government's official web portal to all federal, state and local government web resources and services.